Year,Month,Day,Hour,Minute,Value (Times are PST for temperature in C)
2007,06,25,00,00,10.30
2007,06,25,00,01,10.30
2007,06,25,00,02,10.30
2007,06,25,00,03,10.30
2007,06,25,00,04,10.30
2007,06,25,00,05,10.30
2007,06,25,00,06,10.40
2007,06,25,00,07,10.40
2007,06,25,00,08,10.40
2007,06,25,00,09,10.40
2007,06,25,00,10,10.40
2007,06,25,00,11,10.40
2007,06,25,00,12,10.40
2007,06,25,00,13,10.40
2007,06,25,00,14,10.40
2007,06,25,00,15,10.40
2007,06,25,00,16,10.40
2007,06,25,00,17,10.40
2007,06,25,00,18,10.40
2007,06,25,00,19,10.40
2007,06,25,00,20,10.40
2007,06,25,00,21,10.40
2007,06,25,00,22,10.40
2007,06,25,00,23,10.40
2007,06,25,00,24,10.40
2007,06,25,00,25,10.40
2007,06,25,00,26,10.40
2007,06,25,00,27,10.40
2007,06,25,00,28,10.30
2007,06,25,00,29,10.30
2007,06,25,00,30,10.30
2007,06,25,00,31,10.30
2007,06,25,00,32,10.20
2007,06,25,00,33,10.20
2007,06,25,00,34,10.20
2007,06,25,00,35,10.20
2007,06,25,00,36,10.20
2007,06,25,00,37,10.10
2007,06,25,00,38,10.10
2007,06,25,00,39,10.10
2007,06,25,00,40,10.10
2007,06,25,00,41,10.00
2007,06,25,00,42,9.90
2007,06,25,00,43,9.90
2007,06,25,00,44,9.90
2007,06,25,00,45,9.90
2007,06,25,00,46,9.90
2007,06,25,00,47,9.90
2007,06,25,00,48,9.90
2007,06,25,00,49,9.90
2007,06,25,00,50,9.90
2007,06,25,00,51,9.90
2007,06,25,00,52,9.80
2007,06,25,00,53,9.80
2007,06,25,00,54,9.80
2007,06,25,00,55,9.70
2007,06,25,00,56,9.70
2007,06,25,00,57,9.70
2007,06,25,00,58,9.60
2007,06,25,00,59,9.60
2007,06,25,01,00,9.60
2007,06,25,01,01,9.50
2007,06,25,01,02,9.50
2007,06,25,01,03,9.40
2007,06,25,01,04,9.40
2007,06,25,01,05,9.30
2007,06,25,01,06,9.20
2007,06,25,01,07,9.20
2007,06,25,01,08,9.10
2007,06,25,01,09,9.00
2007,06,25,01,10,9.00
2007,06,25,01,11,8.90
2007,06,25,01,12,8.90
2007,06,25,01,13,8.90
2007,06,25,01,14,8.80
2007,06,25,01,15,8.80
2007,06,25,01,16,8.80
2007,06,25,01,17,8.70
2007,06,25,01,18,8.70
2007,06,25,01,19,8.70
2007,06,25,01,20,8.70
2007,06,25,01,21,8.70
2007,06,25,01,22,8.60
2007,06,25,01,23,8.60
2007,06,25,01,24,8.60
2007,06,25,01,25,8.60
2007,06,25,01,26,8.60
2007,06,25,01,27,8.60
2007,06,25,01,28,8.70
2007,06,25,01,29,8.70
2007,06,25,01,30,8.70
2007,06,25,01,31,8.70
2007,06,25,01,32,8.70
2007,06,25,01,33,8.80
2007,06,25,01,34,8.80
2007,06,25,01,35,8.80
2007,06,25,01,36,8.80
2007,06,25,01,37,8.70
2007,06,25,01,38,8.70
2007,06,25,01,39,8.70
2007,06,25,01,40,8.70
2007,06,25,01,41,8.70
2007,06,25,01,42,8.70
2007,06,25,01,43,8.70
2007,06,25,01,44,8.60
2007,06,25,01,45,8.60
2007,06,25,01,46,8.50
2007,06,25,01,47,8.50
2007,06,25,01,48,8.40
2007,06,25,01,49,8.40
2007,06,25,01,50,8.30
2007,06,25,01,51,8.30
2007,06,25,01,52,8.30
2007,06,25,01,53,8.30
2007,06,25,01,54,8.20
2007,06,25,01,55,8.20
2007,06,25,01,56,8.20
2007,06,25,01,57,8.20
2007,06,25,01,58,8.20
2007,06,25,01,59,8.10
2007,06,25,02,00,8.10
2007,06,25,02,01,8.10
2007,06,25,02,02,8.00
2007,06,25,02,03,8.00
2007,06,25,02,04,8.00
2007,06,25,02,05,8.00
2007,06,25,02,06,8.00
2007,06,25,02,07,8.00
2007,06,25,02,08,7.90
2007,06,25,02,09,7.90
2007,06,25,02,10,7.90
2007,06,25,02,11,7.90
2007,06,25,02,12,7.80
2007,06,25,02,13,7.80
2007,06,25,02,14,7.80
2007,06,25,02,15,7.80
2007,06,25,02,16,7.80
2007,06,25,02,17,7.80
2007,06,25,02,18,7.70
2007,06,25,02,19,7.70
2007,06,25,02,20,7.70
2007,06,25,02,21,7.70
2007,06,25,02,22,7.70
2007,06,25,02,23,7.70
2007,06,25,02,24,7.60
2007,06,25,02,25,7.60
2007,06,25,02,26,7.60
2007,06,25,02,27,7.60
2007,06,25,02,28,7.60
2007,06,25,02,29,7.50
2007,06,25,02,30,7.50
2007,06,25,02,31,7.50
2007,06,25,02,32,7.50
2007,06,25,02,33,7.50
2007,06,25,02,34,7.50
2007,06,25,02,35,7.40
2007,06,25,02,36,7.40
2007,06,25,02,37,7.40
2007,06,25,02,38,7.40
2007,06,25,02,39,7.40
2007,06,25,02,40,7.30
2007,06,25,02,41,7.30
2007,06,25,02,42,7.30
2007,06,25,02,43,7.30
2007,06,25,02,44,7.30
2007,06,25,02,45,7.30
2007,06,25,02,46,7.30
2007,06,25,02,47,7.30
2007,06,25,02,48,7.30
2007,06,25,02,49,7.30
2007,06,25,02,50,7.30
2007,06,25,02,51,7.30
2007,06,25,02,52,7.30
2007,06,25,02,53,7.30
2007,06,25,02,54,7.30
2007,06,25,02,55,7.30
2007,06,25,02,56,7.30
2007,06,25,02,57,7.30
2007,06,25,02,58,7.30
2007,06,25,02,59,7.30
2007,06,25,03,00,7.30
2007,06,25,03,01,7.30
2007,06,25,03,02,7.20
2007,06,25,03,03,7.20
2007,06,25,03,04,7.20
2007,06,25,03,05,7.20
2007,06,25,03,06,7.20
2007,06,25,03,07,7.20
2007,06,25,03,08,7.20
2007,06,25,03,09,7.20
2007,06,25,03,10,7.20
2007,06,25,03,11,7.20
2007,06,25,03,12,7.10
2007,06,25,03,13,7.10
2007,06,25,03,14,7.10
2007,06,25,03,15,7.10
2007,06,25,03,16,7.10
2007,06,25,03,17,7.10
2007,06,25,03,18,7.10
2007,06,25,03,19,7.00
2007,06,25,03,20,7.00
2007,06,25,03,21,7.00
2007,06,25,03,22,7.00
2007,06,25,03,23,7.00
2007,06,25,03,24,7.10
2007,06,25,03,25,7.10
2007,06,25,03,26,7.10
2007,06,25,03,27,7.10
2007,06,25,03,28,7.10
2007,06,25,03,29,7.10
2007,06,25,03,30,7.10
2007,06,25,03,31,7.00
2007,06,25,03,32,7.00
2007,06,25,03,33,7.00
2007,06,25,03,34,7.00
2007,06,25,03,35,7.00
2007,06,25,03,36,7.00
2007,06,25,03,37,7.00
2007,06,25,03,38,7.00
2007,06,25,03,39,7.00
2007,06,25,03,40,7.00
2007,06,25,03,41,7.00
2007,06,25,03,42,6.90
2007,06,25,03,43,6.90
2007,06,25,03,44,6.90
2007,06,25,03,45,6.90
2007,06,25,03,46,6.90
2007,06,25,03,47,6.90
2007,06,25,03,48,6.80
2007,06,25,03,49,6.80
2007,06,25,03,50,6.80
2007,06,25,03,51,6.80
2007,06,25,03,52,6.80
2007,06,25,03,53,6.80
2007,06,25,03,54,6.70
2007,06,25,03,55,6.70
2007,06,25,03,56,6.70
2007,06,25,03,57,6.70
2007,06,25,03,58,6.70
2007,06,25,03,59,6.70
2007,06,25,04,00,6.70
2007,06,25,04,01,6.60
2007,06,25,04,02,6.60
2007,06,25,04,03,6.60
2007,06,25,04,04,6.60
2007,06,25,04,05,6.60
2007,06,25,04,06,6.60
2007,06,25,04,07,6.60
2007,06,25,04,08,6.60
2007,06,25,04,09,6.60
2007,06,25,04,10,6.60
2007,06,25,04,11,6.60
2007,06,25,04,12,6.50
2007,06,25,04,13,6.40
2007,06,25,04,14,6.40
2007,06,25,04,15,6.40
2007,06,25,04,16,6.40
2007,06,25,04,17,6.40
2007,06,25,04,18,6.40
2007,06,25,04,19,6.40
2007,06,25,04,20,6.30
2007,06,25,04,21,6.30
2007,06,25,04,22,6.30
2007,06,25,04,23,6.30
2007,06,25,04,24,6.30
2007,06,25,04,25,6.30
2007,06,25,04,26,6.30
2007,06,25,04,27,6.30
2007,06,25,04,28,6.30
2007,06,25,04,29,6.30
2007,06,25,04,30,6.30
2007,06,25,04,31,6.30
2007,06,25,04,32,6.30
2007,06,25,04,33,6.30
2007,06,25,04,34,6.30
2007,06,25,04,35,6.30
2007,06,25,04,36,6.20
2007,06,25,04,37,6.20
2007,06,25,04,38,6.20
2007,06,25,04,39,6.20
2007,06,25,04,40,6.20
2007,06,25,04,41,6.20
2007,06,25,04,42,6.20
2007,06,25,04,43,6.30
2007,06,25,04,44,6.30
2007,06,25,04,45,6.30
2007,06,25,04,46,6.30
2007,06,25,04,47,6.30
2007,06,25,04,48,6.30
2007,06,25,04,49,6.30
2007,06,25,04,50,6.30
2007,06,25,04,51,6.40
2007,06,25,04,52,6.40
2007,06,25,04,53,6.40
2007,06,25,04,54,6.40
2007,06,25,04,55,6.40
2007,06,25,04,56,6.40
2007,06,25,04,57,6.40
2007,06,25,04,58,6.40
2007,06,25,04,59,6.40
2007,06,25,05,00,6.60
2007,06,25,05,01,6.60
2007,06,25,05,02,6.60
2007,06,25,05,03,6.60
2007,06,25,05,04,6.60
2007,06,25,05,05,6.60
2007,06,25,05,06,6.60
2007,06,25,05,07,6.60
2007,06,25,05,08,6.60
2007,06,25,05,09,6.60
2007,06,25,05,10,6.70
2007,06,25,05,11,6.70
2007,06,25,05,12,6.70
2007,06,25,05,13,6.80
2007,06,25,05,14,6.80
2007,06,25,05,15,6.80
2007,06,25,05,16,6.80
2007,06,25,05,17,6.80
2007,06,25,05,18,6.90
2007,06,25,05,19,6.90
2007,06,25,05,20,6.90
2007,06,25,05,21,6.90
2007,06,25,05,22,7.00
2007,06,25,05,23,7.00
2007,06,25,05,24,7.00
2007,06,25,05,25,7.00
2007,06,25,05,26,7.00
2007,06,25,05,27,7.00
2007,06,25,05,28,7.00
2007,06,25,05,29,7.10
2007,06,25,05,30,7.10
2007,06,25,05,31,7.10
2007,06,25,05,32,7.10
2007,06,25,05,33,7.10
2007,06,25,05,34,7.10
2007,06,25,05,35,7.10
2007,06,25,05,36,7.10
2007,06,25,05,37,7.10
2007,06,25,05,38,7.10
2007,06,25,05,39,7.10
2007,06,25,05,40,7.10
2007,06,25,05,41,7.10
2007,06,25,05,42,7.20
2007,06,25,05,43,7.20
2007,06,25,05,44,7.20
2007,06,25,05,45,7.20
2007,06,25,05,46,7.30
2007,06,25,05,47,7.30
2007,06,25,05,48,7.30
2007,06,25,05,49,7.30
2007,06,25,05,50,7.30
2007,06,25,05,51,7.40
2007,06,25,05,52,7.40
2007,06,25,05,53,7.40
2007,06,25,05,54,7.40
2007,06,25,05,55,7.40
2007,06,25,05,56,7.40
2007,06,25,05,57,7.50
2007,06,25,05,58,7.50
2007,06,25,05,59,7.50
2007,06,25,06,00,7.50
2007,06,25,06,01,7.50
2007,06,25,06,02,7.50
2007,06,25,06,03,7.50
2007,06,25,06,04,7.50
2007,06,25,06,05,7.50
2007,06,25,06,06,7.50
2007,06,25,06,07,7.50
2007,06,25,06,08,7.60
2007,06,25,06,09,7.60
2007,06,25,06,10,7.60
2007,06,25,06,11,7.60
2007,06,25,06,12,7.60
2007,06,25,06,13,7.70
2007,06,25,06,14,7.70
2007,06,25,06,15,7.70
2007,06,25,06,16,7.70
2007,06,25,06,17,7.80
2007,06,25,06,18,7.80
2007,06,25,06,19,7.80
2007,06,25,06,20,7.80
2007,06,25,06,21,7.80
2007,06,25,06,22,7.90
2007,06,25,06,23,7.90
2007,06,25,06,24,7.90
2007,06,25,06,25,7.90
2007,06,25,06,26,8.00
2007,06,25,06,27,8.00
2007,06,25,06,28,8.00
2007,06,25,06,29,8.10
2007,06,25,06,30,8.10
2007,06,25,06,31,8.10
2007,06,25,06,32,8.20
2007,06,25,06,33,8.20
2007,06,25,06,34,8.20
2007,06,25,06,35,8.20
2007,06,25,06,36,8.20
2007,06,25,06,37,8.20
2007,06,25,06,38,8.30
2007,06,25,06,39,8.30
2007,06,25,06,40,8.40
2007,06,25,06,41,8.40
2007,06,25,06,42,8.50
2007,06,25,06,43,8.50
2007,06,25,06,44,8.60
2007,06,25,06,45,8.60
2007,06,25,06,46,8.70
2007,06,25,06,47,8.70
2007,06,25,06,48,8.70
2007,06,25,06,49,8.70
2007,06,25,06,50,8.70
2007,06,25,06,51,8.80
2007,06,25,06,52,8.80
2007,06,25,06,53,8.90
2007,06,25,06,54,8.90
2007,06,25,06,55,9.00
2007,06,25,06,56,9.00
2007,06,25,06,57,9.00
2007,06,25,06,58,9.10
2007,06,25,06,59,9.10
2007,06,25,07,00,9.20
2007,06,25,07,01,9.20
2007,06,25,07,02,9.30
2007,06,25,07,03,9.30
2007,06,25,07,04,9.40
2007,06,25,07,05,9.50
2007,06,25,07,06,9.50
2007,06,25,07,07,9.60
2007,06,25,07,08,9.70
2007,06,25,07,09,9.70
2007,06,25,07,10,9.70
2007,06,25,07,11,9.70
2007,06,25,07,12,9.80
2007,06,25,07,13,9.80
2007,06,25,07,14,9.90
2007,06,25,07,15,9.90
2007,06,25,07,16,9.90
2007,06,25,07,17,10.00
2007,06,25,07,18,10.10
2007,06,25,07,19,10.10
2007,06,25,07,20,10.20
2007,06,25,07,21,10.30
2007,06,25,07,22,10.30
2007,06,25,07,23,10.40
2007,06,25,07,24,10.50
2007,06,25,07,25,10.60
2007,06,25,07,26,10.60
2007,06,25,07,27,10.70
2007,06,25,07,28,10.80
2007,06,25,07,29,10.80
2007,06,25,07,30,10.90
2007,06,25,07,31,10.90
2007,06,25,07,32,11.00
2007,06,25,07,33,11.10
2007,06,25,07,34,11.10
2007,06,25,07,35,11.20
2007,06,25,07,36,11.30
2007,06,25,07,37,11.30
2007,06,25,07,38,11.40
2007,06,25,07,39,11.50
2007,06,25,07,40,11.60
2007,06,25,07,41,11.60
2007,06,25,07,42,11.80
2007,06,25,07,43,11.90
2007,06,25,07,44,12.00
2007,06,25,07,45,12.10
2007,06,25,07,46,12.10
2007,06,25,07,47,12.30
2007,06,25,07,48,12.40
2007,06,25,07,49,12.50
2007,06,25,07,50,12.60
2007,06,25,07,51,12.80
2007,06,25,07,52,12.90
2007,06,25,07,53,13.10
2007,06,25,07,54,13.20
2007,06,25,07,55,13.30
2007,06,25,07,56,13.30
2007,06,25,07,57,13.40
2007,06,25,07,58,13.40
2007,06,25,07,59,13.50
2007,06,25,08,00,13.50
2007,06,25,08,01,13.50
2007,06,25,08,02,13.60
2007,06,25,08,03,13.60
2007,06,25,08,04,13.60
2007,06,25,08,05,13.60
2007,06,25,08,06,13.60
2007,06,25,08,07,13.60
2007,06,25,08,08,13.60
2007,06,25,08,09,13.50
2007,06,25,08,10,13.50
2007,06,25,08,11,13.50
2007,06,25,08,12,13.50
2007,06,25,08,13,13.40
2007,06,25,08,14,13.30
2007,06,25,08,15,13.30
2007,06,25,08,16,13.30
2007,06,25,08,17,13.30
2007,06,25,08,18,13.30
2007,06,25,08,19,13.40
2007,06,25,08,20,13.40
2007,06,25,08,21,13.40
2007,06,25,08,22,13.40
2007,06,25,08,23,13.40
2007,06,25,08,24,13.30
2007,06,25,08,25,13.40
2007,06,25,08,26,13.40
2007,06,25,08,27,13.50
2007,06,25,08,28,13.50
2007,06,25,08,29,13.60
2007,06,25,08,30,13.70
2007,06,25,08,31,13.70
2007,06,25,08,32,13.70
2007,06,25,08,33,13.80
2007,06,25,08,34,13.90
2007,06,25,08,35,14.00
2007,06,25,08,36,14.10
2007,06,25,08,37,14.20
2007,06,25,08,38,14.40
2007,06,25,08,39,14.40
2007,06,25,08,40,14.50
2007,06,25,08,41,14.50
2007,06,25,08,42,14.50
2007,06,25,08,43,14.50
2007,06,25,08,44,14.50
2007,06,25,08,45,14.60
2007,06,25,08,46,14.70
2007,06,25,08,47,14.80
2007,06,25,08,48,14.80
2007,06,25,08,49,14.90
2007,06,25,08,50,15.00
2007,06,25,08,51,15.10
2007,06,25,08,52,15.10
2007,06,25,08,53,15.20
2007,06,25,08,54,15.30
2007,06,25,08,55,15.40
2007,06,25,08,56,15.40
2007,06,25,08,57,15.30
2007,06,25,08,58,15.30
2007,06,25,08,59,15.40
2007,06,25,09,00,15.40
2007,06,25,09,01,15.50
2007,06,25,09,02,15.50
2007,06,25,09,03,15.40
2007,06,25,09,04,15.20
2007,06,25,09,05,15.00
2007,06,25,09,06,14.80
2007,06,25,09,07,14.80
2007,06,25,09,08,14.80
2007,06,25,09,09,14.80
2007,06,25,09,10,14.80
2007,06,25,09,11,14.90
2007,06,25,09,12,15.00
2007,06,25,09,13,15.00
2007,06,25,09,14,15.10
2007,06,25,09,15,15.20
2007,06,25,09,16,15.30
2007,06,25,09,17,15.40
2007,06,25,09,18,15.40
2007,06,25,09,19,15.40
2007,06,25,09,20,15.50
2007,06,25,09,21,15.60
2007,06,25,09,22,15.70
2007,06,25,09,23,15.80
2007,06,25,09,24,16.00
2007,06,25,09,25,16.10
2007,06,25,09,26,16.20
2007,06,25,09,27,16.20
2007,06,25,09,28,16.20
2007,06,25,09,29,16.20
2007,06,25,09,30,16.20
2007,06,25,09,31,16.10
2007,06,25,09,32,16.00
2007,06,25,09,33,15.90
2007,06,25,09,34,15.80
2007,06,25,09,35,15.70
2007,06,25,09,36,15.60
2007,06,25,09,37,15.40
2007,06,25,09,38,15.30
2007,06,25,09,39,15.10
2007,06,25,09,40,14.90
2007,06,25,09,41,14.80
2007,06,25,09,42,14.80
2007,06,25,09,43,14.70
2007,06,25,09,44,14.60
2007,06,25,09,45,14.60
2007,06,25,09,46,14.50
2007,06,25,09,47,14.50
2007,06,25,09,48,14.50
2007,06,25,09,49,14.40
2007,06,25,09,50,14.40
2007,06,25,09,51,14.30
2007,06,25,09,52,14.40
2007,06,25,09,53,14.40
2007,06,25,09,54,14.50
2007,06,25,09,55,14.50
2007,06,25,09,56,14.50
2007,06,25,09,57,14.50
2007,06,25,09,58,14.50
2007,06,25,09,59,14.50
2007,06,25,10,00,14.50
2007,06,25,10,01,14.50
2007,06,25,10,02,14.50
2007,06,25,10,03,14.40
2007,06,25,10,04,14.40
2007,06,25,10,05,14.40
2007,06,25,10,06,14.40
2007,06,25,10,07,14.40
2007,06,25,10,08,14.40
2007,06,25,10,09,14.40
2007,06,25,10,10,14.40
2007,06,25,10,11,14.40
2007,06,25,10,12,14.40
2007,06,25,10,13,14.40
2007,06,25,10,14,14.40
2007,06,25,10,15,14.30
2007,06,25,10,16,14.20
2007,06,25,10,17,14.20
2007,06,25,10,18,14.20
2007,06,25,10,19,14.10
2007,06,25,10,20,14.10
2007,06,25,10,21,14.00
2007,06,25,10,22,14.00
2007,06,25,10,23,14.10
2007,06,25,10,24,14.10
2007,06,25,10,25,14.10
2007,06,25,10,26,14.20
2007,06,25,10,27,14.20
2007,06,25,10,28,14.20
2007,06,25,10,29,14.30
2007,06,25,10,30,14.40
2007,06,25,10,31,14.40
2007,06,25,10,32,14.40
2007,06,25,10,33,14.40
2007,06,25,10,34,14.30
2007,06,25,10,35,14.30
2007,06,25,10,36,14.30
2007,06,25,10,37,14.30
2007,06,25,10,38,14.30
2007,06,25,10,39,14.40
2007,06,25,10,40,14.50
2007,06,25,10,41,14.50
2007,06,25,10,42,14.40
2007,06,25,10,43,14.40
2007,06,25,10,44,14.50
2007,06,25,10,45,14.40
2007,06,25,10,46,14.40
2007,06,25,10,47,14.40
2007,06,25,10,48,14.40
2007,06,25,10,49,14.40
2007,06,25,10,50,14.40
2007,06,25,10,51,14.40
2007,06,25,10,52,14.40
2007,06,25,10,53,14.40
2007,06,25,10,54,14.40
2007,06,25,10,55,14.40
2007,06,25,10,56,14.30
2007,06,25,10,57,14.30
2007,06,25,10,58,14.30
2007,06,25,10,59,14.30
2007,06,25,11,00,14.20
2007,06,25,11,01,14.30
2007,06,25,11,02,14.30
2007,06,25,11,03,14.30
2007,06,25,11,04,14.30
2007,06,25,11,05,14.30
2007,06,25,11,06,14.30
2007,06,25,11,07,14.40
2007,06,25,11,08,14.40
2007,06,25,11,09,14.50
2007,06,25,11,10,14.50
2007,06,25,11,11,14.40
2007,06,25,11,12,14.40
2007,06,25,11,13,14.40
2007,06,25,11,14,14.40
2007,06,25,11,15,14.30
2007,06,25,11,16,14.20
2007,06,25,11,17,14.20
2007,06,25,11,18,14.10
2007,06,25,11,19,14.00
2007,06,25,11,20,14.00
2007,06,25,11,21,13.90
2007,06,25,11,22,13.80
2007,06,25,11,23,13.80
2007,06,25,11,24,13.80
2007,06,25,11,25,13.90
2007,06,25,11,26,13.90
2007,06,25,11,27,13.80
2007,06,25,11,28,13.70
2007,06,25,11,29,13.70
2007,06,25,11,30,13.70
2007,06,25,11,31,13.70
2007,06,25,11,32,13.80
2007,06,25,11,33,13.90
2007,06,25,11,34,14.00
2007,06,25,11,35,14.00
2007,06,25,11,36,14.10
2007,06,25,11,37,14.10
2007,06,25,11,38,14.20
2007,06,25,11,39,14.30
2007,06,25,11,40,14.40
2007,06,25,11,41,14.50
2007,06,25,11,42,14.60
2007,06,25,11,43,14.70
2007,06,25,11,44,14.80
2007,06,25,11,45,14.70
2007,06,25,11,46,14.70
2007,06,25,11,47,14.80
2007,06,25,11,48,14.80
2007,06,25,11,49,14.80
2007,06,25,11,50,14.80
2007,06,25,11,51,14.80
2007,06,25,11,52,14.80
2007,06,25,11,53,14.80
2007,06,25,11,54,14.80
2007,06,25,11,55,14.90
2007,06,25,11,56,15.00
2007,06,25,11,57,15.10
2007,06,25,11,58,15.10
2007,06,25,11,59,15.20
2007,06,25,12,00,15.10
2007,06,25,12,01,15.10
2007,06,25,12,02,15.10
2007,06,25,12,03,15.20
2007,06,25,12,04,15.20
2007,06,25,12,05,15.20
2007,06,25,12,06,15.10
2007,06,25,12,07,14.90
2007,06,25,12,08,14.70
2007,06,25,12,09,14.50
2007,06,25,12,10,14.50
2007,06,25,12,11,14.60
2007,06,25,12,12,14.70
2007,06,25,12,13,14.80
2007,06,25,12,14,14.90
2007,06,25,12,15,15.00
2007,06,25,12,16,15.10
2007,06,25,12,17,15.20
2007,06,25,12,18,15.20
2007,06,25,12,19,15.30
2007,06,25,12,20,15.30
2007,06,25,12,21,15.30
2007,06,25,12,22,15.30
2007,06,25,12,23,15.30
2007,06,25,12,24,15.40
2007,06,25,12,25,15.50
2007,06,25,12,26,15.50
2007,06,25,12,27,15.60
2007,06,25,12,28,15.60
2007,06,25,12,29,15.60
2007,06,25,12,30,15.40
2007,06,25,12,31,15.30
2007,06,25,12,32,15.20
2007,06,25,12,33,15.10
2007,06,25,12,34,15.10
2007,06,25,12,35,15.10
2007,06,25,12,36,15.10
2007,06,25,12,37,15.10
2007,06,25,12,38,15.00
2007,06,25,12,39,15.00
2007,06,25,12,40,15.10
2007,06,25,12,41,15.30
2007,06,25,12,42,15.40
2007,06,25,12,43,15.50
2007,06,25,12,44,15.40
2007,06,25,12,45,15.40
2007,06,25,12,46,15.30
2007,06,25,12,47,15.30
2007,06,25,12,48,15.30
2007,06,25,12,49,15.30
2007,06,25,12,50,15.30
2007,06,25,12,51,15.40
2007,06,25,12,52,15.50
2007,06,25,12,53,15.60
2007,06,25,12,54,15.60
2007,06,25,12,55,15.70
2007,06,25,12,56,15.70
2007,06,25,12,57,15.80
2007,06,25,12,58,15.80
2007,06,25,12,59,15.90
2007,06,25,13,00,16.00
2007,06,25,13,01,16.10
2007,06,25,13,02,16.10
2007,06,25,13,03,16.20
2007,06,25,13,04,16.40
2007,06,25,13,05,16.50
2007,06,25,13,06,16.50
2007,06,25,13,07,16.40
2007,06,25,13,08,16.40
2007,06,25,13,09,16.40
2007,06,25,13,10,16.30
2007,06,25,13,11,16.30
2007,06,25,13,12,16.20
2007,06,25,13,13,16.20
2007,06,25,13,14,16.30
2007,06,25,13,15,16.30
2007,06,25,13,16,16.30
2007,06,25,13,17,16.40
2007,06,25,13,18,16.60
2007,06,25,13,19,16.70
2007,06,25,13,20,16.70
2007,06,25,13,21,16.70
2007,06,25,13,22,16.70
2007,06,25,13,23,16.90
2007,06,25,13,24,17.00
2007,06,25,13,25,17.10
2007,06,25,13,26,17.20
2007,06,25,13,27,17.30
2007,06,25,13,28,17.30
2007,06,25,13,29,17.50
2007,06,25,13,30,17.60
2007,06,25,13,31,17.60
2007,06,25,13,32,17.70
2007,06,25,13,33,17.80
2007,06,25,13,34,17.90
2007,06,25,13,35,17.80
2007,06,25,13,36,17.70
2007,06,25,13,37,17.50
2007,06,25,13,38,17.30
2007,06,25,13,39,17.10
2007,06,25,13,40,16.70
2007,06,25,13,41,16.50
2007,06,25,13,42,16.40
2007,06,25,13,43,16.40
2007,06,25,13,44,16.60
2007,06,25,13,45,16.70
2007,06,25,13,46,16.70
2007,06,25,13,47,16.80
2007,06,25,13,48,16.80
2007,06,25,13,49,16.70
2007,06,25,13,50,16.70
2007,06,25,13,51,16.60
2007,06,25,13,52,16.40
2007,06,25,13,53,16.40
2007,06,25,13,54,16.30
2007,06,25,13,55,16.10
2007,06,25,13,56,16.10
2007,06,25,13,57,16.10
2007,06,25,13,58,16.20
2007,06,25,13,59,16.20
2007,06,25,14,00,16.20
2007,06,25,14,01,16.20
2007,06,25,14,02,16.20
2007,06,25,14,03,16.20
2007,06,25,14,04,16.10
2007,06,25,14,05,16.20
2007,06,25,14,06,16.40
2007,06,25,14,07,16.60
2007,06,25,14,08,16.70
2007,06,25,14,09,16.90
2007,06,25,14,10,17.10
2007,06,25,14,11,17.30
2007,06,25,14,12,17.60
2007,06,25,14,13,17.80
2007,06,25,14,14,18.00
2007,06,25,14,15,18.20
2007,06,25,14,16,18.30
2007,06,25,14,17,18.40
2007,06,25,14,18,18.50
2007,06,25,14,19,18.60
2007,06,25,14,20,18.50
2007,06,25,14,21,18.50
2007,06,25,14,22,18.50
2007,06,25,14,23,18.50
2007,06,25,14,24,18.30
2007,06,25,14,25,18.20
2007,06,25,14,26,18.20
2007,06,25,14,27,18.10
2007,06,25,14,28,18.10
2007,06,25,14,29,18.10
2007,06,25,14,30,18.20
2007,06,25,14,31,18.30
2007,06,25,14,32,18.30
2007,06,25,14,33,17.80
2007,06,25,14,34,17.40
2007,06,25,14,35,17.30
2007,06,25,14,36,17.40
2007,06,25,14,37,17.40
2007,06,25,14,38,17.40
2007,06,25,14,39,17.50
2007,06,25,14,40,17.60
2007,06,25,14,41,17.60
2007,06,25,14,42,17.70
2007,06,25,14,43,17.80
2007,06,25,14,44,17.90
2007,06,25,14,45,18.10
2007,06,25,14,46,18.10
2007,06,25,14,47,18.00
2007,06,25,14,48,17.80
2007,06,25,14,49,17.70
2007,06,25,14,50,17.70
2007,06,25,14,51,17.70
2007,06,25,14,52,17.80
2007,06,25,14,53,17.80
2007,06,25,14,54,17.80
2007,06,25,14,55,17.90
2007,06,25,14,56,18.00
2007,06,25,14,57,18.10
2007,06,25,14,58,18.20
2007,06,25,14,59,18.40
2007,06,25,15,00,18.50
2007,06,25,15,01,18.60
2007,06,25,15,02,18.60
2007,06,25,15,03,18.60
2007,06,25,15,04,18.60
2007,06,25,15,05,18.70
2007,06,25,15,06,18.70
2007,06,25,15,07,18.70
2007,06,25,15,08,18.70
2007,06,25,15,09,18.80
2007,06,25,15,10,18.90
2007,06,25,15,11,18.90
2007,06,25,15,12,18.90
2007,06,25,15,13,19.00
2007,06,25,15,14,19.10
2007,06,25,15,15,19.10
2007,06,25,15,16,19.20
2007,06,25,15,17,19.30
2007,06,25,15,18,19.30
2007,06,25,15,19,19.20
2007,06,25,15,20,19.10
2007,06,25,15,21,19.10
2007,06,25,15,22,18.90
2007,06,25,15,23,18.70
2007,06,25,15,24,18.50
2007,06,25,15,25,18.40
2007,06,25,15,26,18.40
2007,06,25,15,27,18.40
2007,06,25,15,28,18.40
2007,06,25,15,29,18.40
2007,06,25,15,30,18.10
2007,06,25,15,31,17.90
2007,06,25,15,32,17.70
2007,06,25,15,33,17.60
2007,06,25,15,34,17.20
2007,06,25,15,35,16.90
2007,06,25,15,36,16.70
2007,06,25,15,37,16.70
2007,06,25,15,38,16.70
2007,06,25,15,39,16.70
2007,06,25,15,40,16.70
2007,06,25,15,41,16.70
2007,06,25,15,42,16.80
2007,06,25,15,43,16.90
2007,06,25,15,44,17.10
2007,06,25,15,45,17.30
2007,06,25,15,46,17.60
2007,06,25,15,47,17.70
2007,06,25,15,48,17.80
2007,06,25,15,49,17.90
2007,06,25,15,50,17.90
2007,06,25,15,51,18.10
2007,06,25,15,52,18.20
2007,06,25,15,53,18.30
2007,06,25,15,54,18.30
2007,06,25,15,55,18.20
2007,06,25,15,56,18.00
2007,06,25,15,57,17.80
2007,06,25,15,58,17.60
2007,06,25,15,59,17.50
2007,06,25,16,00,17.40
2007,06,25,16,01,17.40
2007,06,25,16,02,17.40
2007,06,25,16,03,17.40
2007,06,25,16,04,17.20
2007,06,25,16,05,17.00
2007,06,25,16,06,16.90
2007,06,25,16,07,17.00
2007,06,25,16,08,17.10
2007,06,25,16,09,17.20
2007,06,25,16,10,17.30
2007,06,25,16,11,17.40
2007,06,25,16,12,17.50
2007,06,25,16,13,17.60
2007,06,25,16,14,17.70
2007,06,25,16,15,17.80
2007,06,25,16,16,18.00
2007,06,25,16,17,18.20
2007,06,25,16,18,18.30
2007,06,25,16,19,18.30
2007,06,25,16,20,18.20
2007,06,25,16,21,18.20
2007,06,25,16,22,18.20
2007,06,25,16,23,18.20
2007,06,25,16,24,18.20
2007,06,25,16,25,18.10
2007,06,25,16,26,17.90
2007,06,25,16,27,17.80
2007,06,25,16,28,17.50
2007,06,25,16,29,17.50
2007,06,25,16,30,17.40
2007,06,25,16,31,17.40
2007,06,25,16,32,17.50
2007,06,25,16,33,17.60
2007,06,25,16,34,17.70
2007,06,25,16,35,17.90
2007,06,25,16,36,17.90
2007,06,25,16,37,18.00
2007,06,25,16,38,17.90
2007,06,25,16,39,18.00
2007,06,25,16,40,18.10
2007,06,25,16,41,18.10
2007,06,25,16,42,18.10
2007,06,25,16,43,18.20
2007,06,25,16,44,18.20
2007,06,25,16,45,18.00
2007,06,25,16,46,17.90
2007,06,25,16,47,17.90
2007,06,25,16,48,17.90
2007,06,25,16,49,18.00
2007,06,25,16,50,18.20
2007,06,25,16,51,18.30
2007,06,25,16,52,18.50
2007,06,25,16,53,18.60
2007,06,25,16,54,18.70
2007,06,25,16,55,18.80
2007,06,25,16,56,18.90
2007,06,25,16,57,19.00
2007,06,25,16,58,19.10
2007,06,25,16,59,19.10
2007,06,25,17,00,19.10
2007,06,25,17,01,19.10
2007,06,25,17,02,19.10
2007,06,25,17,03,19.10
2007,06,25,17,04,19.00
2007,06,25,17,05,18.90
2007,06,25,17,06,18.90
2007,06,25,17,07,18.90
2007,06,25,17,08,18.90
2007,06,25,17,09,18.80
2007,06,25,17,10,18.70
2007,06,25,17,11,18.60
2007,06,25,17,12,18.40
2007,06,25,17,13,18.10
2007,06,25,17,14,17.90
2007,06,25,17,15,17.90
2007,06,25,17,16,17.90
2007,06,25,17,17,17.90
2007,06,25,17,18,17.80
2007,06,25,17,19,17.60
2007,06,25,17,20,17.50
2007,06,25,17,21,17.50
2007,06,25,17,22,17.40
2007,06,25,17,23,17.50
2007,06,25,17,24,17.50
2007,06,25,17,25,17.50
2007,06,25,17,26,17.40
2007,06,25,17,27,17.40
2007,06,25,17,28,17.40
2007,06,25,17,29,17.40
2007,06,25,17,30,17.50
2007,06,25,17,31,17.50
2007,06,25,17,32,17.50
2007,06,25,17,33,17.50
2007,06,25,17,34,17.60
2007,06,25,17,35,17.60
2007,06,25,17,36,17.60